Location: Brodeslavy
(49.9527°N, 13.5567°E)
Time: 04:37:10
(UTC+00:00)

Cosmos 2344 - Pass Details

Date: 17 June 2025
Orbit: 1200 x 3043 km, 63.3° (Epoch: 12 July)

Event Time Altitude Azimuth Distance (km) Brightness Sun altitude
Rises 21:00:52 0° 315° (NW) 4,200 8.0 -11.5°
Reaches altitude 10° 21:03:23 10° 317° (NW) 3,313 7.1 -11.7°
Maximum altitude 21:11:19 84° 46° (NE) 1,546 4.0 -12.3°
Enters shadow 21:21:13 13° 135° (SE) 4,124 5.6 -13.0°
